カタログに戻る

DMSP 5D-2 F13 DEB

運用中SSO
NORAD 40412·DEBRIS·🇺🇸 United States

打ち上げ Mar 24, 1995 から Vandenberg Space Force Base

Loading…

次のパス (今後24時間)

TLE

最新Source: Space-Track

元期: Sep 14, 2026, 06:06 UTC

1 40412U 95015Z   26257.25484282  .00000141  00000-0  84725-4 0  9994
2 40412  98.7053 270.5632 0019930 111.5849 248.7454 14.21037328598581

AllMySatでDMSP 5D-2 F13 DEBをリアルタイム追跡

Download on the App Store